FW5765 Weather Reports


time (UTC)temp
F
wind
direction
speed
knots
gust
knots
rain 1hr
in
rain 24hr
in
rain mn
in
humidity
%
barometer
mb
20260906205616 85 121 6.1 11.3 0.00 0.00 0.00 56 1008.8
20260906205139 85 172 2.6 8.7 0.00 0.00 0.00 59 1008.8
20260906204716 84 161 7.8 11.3 0.00 0.00 0.00 60 1009.1
20260906204236 84 164 6.1 11.3 0.00 0.00 0.00 60 1009.1
20260906203816 85 122 7.8 10.4 0.00 0.00 0.00 59 1009.1
20260906203415 85 136 9.6 12.2 0.00 0.00 0.00 60 1009.1
20260906202914 84 144 4.3 12.2 0.00 0.00 0.00 57 1009.1
20260906202514 85 125 1.7 10.4 0.00 0.00 0.00 59 1009.1
20260906202039 85 140 4.3 10.4 0.00 0.00 0.00 57 1009.1
20260906201640 85 136 8.7 10.4 0.00 0.00 0.00 59 1009.1
20260906201213 85 192 3.5 10.4 0.00 0.00 0.00 58 1009.1
20260906200740 85 160 5.2 8.7 0.00 0.00 0.00 60 1009.5
20260906200314 85 163 6.1 9.6 0.00 0.00 0.00 59 1009.5
20260906195842 85 153 6.1 9.6 0.00 0.00 0.00 60 1009.5
20260906195412 85 134 4.3 10.4 0.00 0.00 0.00 59 1009.5
20260906194913 85 208 1.7 10.4 0.00 0.00 0.00 59 1009.5
20260906194413 85 166 3.5 9.6 0.00 0.00 0.00 59 1009.5
20260906193912 85 184 0.9 9.6 0.00 0.00 0.00 56 1009.5
20260906193340 85 192 3.5 10.4 0.00 0.00 0.00 57 1009.5
20260906192840 85 181 4.3 10.4 0.00 0.00 0.00 57 1009.8
20260906192438 85 176 7.0 10.4 0.00 0.00 0.00 55 1009.8
20260906192012 85 180 7.0 7.8 0.00 0.00 0.00 56 1009.8
20260906191545 85 171 4.3 8.7 0.00 0.00 0.00 59 1009.8
20260906191113 84 193 7.8 8.7 0.00 0.00 0.00 58 1009.8
20260906190612 84 192 1.7 9.6 0.00 0.00 0.00 58 1009.8
20260906190141 84 167 4.3 10.4 0.00 0.00 0.00 57 1009.8
20260906185713 84 199 7.8 10.4 0.00 0.00 0.00 57 1009.8
20260906185239 84 186 5.2 10.4 0.00 0.00 0.00 57 1009.8
20260906184812 84 200 4.3 10.4 0.00 0.00 0.00 57 1010.2
20260906184343 84 199 9.6 10.4 0.00 0.00 0.00 57 1010.2
20260906183912 83 198 3.5 9.6 0.00 0.00 0.00 57 1010.2
20260906183413 83 185 2.6 10.4 0.00 0.00 0.00 58 1010.2
20260906182914 83 181 3.5 8.7 0.00 0.00 0.00 60 1010.2
20260906182412 83 170 3.5 8.7 0.00 0.00 0.00 58 1010.5
20260906181939 83 211 8.7 11.3 0.00 0.00 0.00 59 1010.5
20260906181510 83 205 7.0 11.3 0.00 0.00 0.00 59 1010.5
20260906181039 83 168 1.7 8.7 0.00 0.00 0.00 60 1010.5
20260906180613 83 185 6.1 9.6 0.00 0.00 0.00 58 1010.5
20260906180213 83 207 8.7 9.6 0.00 0.00 0.00 59 1010.8
20260906175711 83 192 7.0 9.6 0.00 0.00 0.00 58 1010.8
20260906175314 83 187 5.2 10.4 0.00 0.00 0.00 61 1010.8
20260906174844 82 186 4.3 9.6 0.00 0.00 0.00 57 1010.8
20260906174412 82 175 0.9 8.7 0.00 0.00 0.00 58 1010.8
20260906173942 82 200 7.8 9.6 0.00 0.00 0.00 57 1010.8
20260906173538 82 217 4.3 8.7 0.00 0.00 0.00 57 1010.8
20260906173111 82 199 5.2 8.7 0.00 0.00 0.00 60 1010.8
20260906172643 81 216 6.1 9.6 0.00 0.00 0.00 57 1010.8
20260906172145 81 199 1.7 9.6 0.00 0.00 0.00 59 1011.2
20260906171642 80 203 5.2 11.3 0.00 0.00 0.00 59 1011.2
20260906171143 80 207 4.3 11.3 0.00 0.00 0.00 60 1011.2
20260906170642 80 186 2.6 9.6 0.00 0.00 0.00 60 1011.2
20260906170140 80 175 7.0 9.6 0.00 0.00 0.00 61 1011.2
20260906165642 79 204 6.1 9.6 0.00 0.00 0.00 61 1011.2
20260906165143 79 198 4.3 9.6 0.00 0.00 0.00 62 1011.5
20260906164646 78 205 1.7 9.6 0.00 0.00 0.00 64 1011.5
20260906164153 78 200 7.0 10.4 0.00 0.00 0.00 63 1011.2
20260906163656 78 189 6.1 10.4 0.00 0.00 0.00 63 1011.5
20260906163212 77 180 7.0 9.6 0.00 0.00 0.00 65 1011.5
20260906162714 77 196 7.8 9.6 0.00 0.00 0.00 65 1011.5
20260906162239 76 193 2.6 9.6 0.00 0.00 0.00 65 1011.5
20260906161831 76 187 4.3 9.6 0.00 0.00 0.00 66 1011.5
20260906161338 76 225 8.7 10.4 0.00 0.00 0.00 69 1011.5
20260906160926 75 212 5.2 10.4 0.00 0.00 0.00 67 1011.5
20260906160426 75 198 6.1 10.4 0.00 0.00 0.00 68 1011.5
20260906155932 75 190 7.0 9.6 0.00 0.00 0.00 68 1011.5
20260906155441 74 204 5.2 9.6 0.00 0.00 0.00 68 1011.5
20260906154950 74 190 8.7 9.6 0.00 0.00 0.00 70 1011.5
20260906154507 74 217 7.0 9.6 0.00 0.00 0.00 70 1011.5
20260906154041 74 205 7.8 8.7 0.00 0.00 0.00 70 1011.5
20260906153541 73 193 3.5 8.7 0.00 0.00 0.00 72 1011.5
20260906153101 73 194 4.3 8.7 0.00 0.00 0.00 72 1011.9
20260906152619 72 182 6.1 8.7 0.00 0.00 0.00 72 1011.5
20260906152143 72 181 5.2 7.8 0.00 0.00 0.00 74 1011.5
20260906151555 71 172 0.0 7.8 0.00 0.00 0.00 75 1011.5
20260906151119 71 184 0.9 7.0 0.00 0.00 0.00 76 1011.5
20260906150646 70 186 1.7 7.0 0.00 0.00 0.00 74 1011.5
20260906150214 70 211 3.5 7.0 0.00 0.00 0.00 73 1011.5
20260906145638 70 203 0.9 7.0 0.00 0.00 0.00 76 1011.5
20260906145142 69 220 0.0 6.1 0.00 0.00 0.00 76 1011.9
20260906144605 69 219 0.0 6.1 0.00 0.00 0.00 76 1011.9
20260906144027 69 196 1.7 6.1 0.00 0.00 0.00 76 1012.2
20260906143555 69 200 2.6 5.2 0.00 0.00 0.00 77 1011.9
20260906143125 68 221 0.0 5.2 0.00 0.00 0.00 77 1012.2
20260906142655 68 232 0.9 6.1 0.00 0.00 0.00 78 1012.2
20260906142240 68 244 0.9 6.1 0.00 0.00 0.00 78 1012.2
20260906141739 67 222 0.9 5.2 0.00 0.00 0.00 80 1012.2
20260906141212 66 264 0.0 5.2 0.00 0.00 0.00 80 1012.2
20260906140635 66 265 0.0 1.7 0.00 0.00 0.00 84 1012.2
20260906140139 65 265 0.0 2.6 0.00 0.00 0.00 86 1012.2
20260906135640 65 265 0.0 2.6 0.00 0.00 0.00 87 1012.2
20260906135137 64 328 0.9 1.7 0.00 0.00 0.00 88 1012.2
20260906134700 64 329 0.0 0.9 0.00 0.00 0.00 89 1012.2
20260906134143 63 329 0.0 0.9 0.00 0.00 0.00 89 1012.2
20260906133728 62 329 0.0 0.9 0.00 0.00 0.00 90 1012.5
20260906133214 62 329 0.0 0.9 0.00 0.00 0.00 90 1012.2
20260906132740 62 329 0.0 0.9 0.00 0.00 0.00 91 1012.2
20260906132251 61 329 0.0 0.9 0.00 0.00 0.00 91 1012.2
20260906131843 60 329 0.0 0.9 0.00 0.00 0.00 91 1012.2
20260906131336 60 329 0.0 0.9 0.00 0.00 0.00 91 1012.2
20260906130843 60 329 0.0 2.6 0.00 0.00 0.00 91 1012.2
20260906130414 59 329 0.0 2.6 0.00 0.00 0.00 91 1012.2
20260906125955 59 329 1.7 1.7 0.00 0.00 0.00 91 1012.2
20260906125548 59 329 0.0 1.7 0.00 0.00 0.00 91 1012.2
20260906125036 58 329 0.0 2.6 0.00 0.00 0.00 91 1012.2
20260906124529 58 329 1.7 2.6 0.00 0.00 0.00 90 1012.2
20260906124024 58 329 1.7 2.6 0.00 0.00 0.00 90 1012.2
20260906123542 58 329 1.7 3.5 0.00 0.00 0.00 90 1012.2
20260906123114 58 329 2.6 2.6 0.00 0.00 0.00 90 1012.2
20260906122640 59 329 0.9 1.7 0.00 0.00 0.00 90 1012.5
20260906122215 59 329 0.0 3.5 0.00 0.00 0.00 90 1012.2
20260906121814 59 329 0.9 3.5 0.00 0.00 0.00 90 1012.2
20260906121339 59 330 1.7 2.6 0.00 0.00 0.00 90 1012.2
20260906120904 59 330 0.9 2.6 0.00 0.00 0.00 90 1012.2
20260906120438 59 331 0.9 3.5 0.00 0.00 0.00 89 1012.5
20260906120022 59 328 0.9 3.5 0.00 0.00 0.00 89 1012.2
20260906115601 59 329 1.7 4.3 0.00 0.00 0.00 89 1012.5
20260906115042 59 304 2.6 4.3 0.00 0.00 0.00 89 1012.5
20260906114602 60 258 1.7 3.5 0.00 0.00 0.00 89 1012.2
20260906114201 60 258 2.6 3.5 0.00 0.00 0.00 89 1012.2
20260906113705 60 253 1.7 3.5 0.00 0.00 0.00 90 1011.9
20260906113242 60 258 0.0 3.5 0.00 0.00 0.00 90 1011.9
20260906112841 59 258 0.9 3.5 0.00 0.00 0.00 91 1011.9
20260906112306 59 257 3.5 3.5 0.00 0.00 0.00 91 1011.5
20260906111801 59 244 3.5 3.5 0.00 0.00 0.00 91 1011.5
20260906111300 59 221 0.0 1.7 0.00 0.00 0.00 91 1011.5
20260906110801 59 221 1.7 2.6 0.00 0.00 0.00 90 1011.5
20260906110300 59 221 0.9 2.6 0.00 0.00 0.00 90 1011.5
20260906105759 58 221 0.9 2.6 0.00 0.00 0.00 90 1011.5
20260906105300 58 221 1.7 1.7 0.00 0.00 0.00 90 1011.5
20260906104759 59 221 0.0 1.7 0.00 0.00 0.00 90 1011.5
20260906104259 59 221 1.7 1.7 0.00 0.00 0.00 89 1011.5
20260906103759 59 221 1.7 1.7 0.00 0.00 0.00 89 1011.2
20260906103301 59 221 0.0 1.7 0.00 0.00 0.00 89 1011.2
20260906102758 59 221 0.0 1.7 0.00 0.00 0.00 89 1011.2
20260906102258 59 221 1.7 2.6 0.00 0.00 0.00 89 1011.2
20260906101758 59 221 1.7 2.6 0.00 0.00 0.00 89 1010.8
20260906101303 60 221 0.0 2.6 0.00 0.00 0.00 89 1010.8
20260906100758 59 221 1.7 2.6 0.00 0.00 0.00 89 1010.8
20260906100257 59 208 0.9 2.6 0.00 0.00 0.00 88 1010.8
20260906095757 60 207 0.9 1.7 0.00 0.00 0.00 88 1010.8
20260906095256 60 207 0.0 0.0 0.00 0.00 0.00 87 1010.8
20260906094756 60 207 0.0 0.0 0.00 0.00 0.00 87 1010.8
20260906094255 60 207 0.0 0.0 0.00 0.00 0.00 87 1010.8
20260906093755 60 207 0.0 0.0 0.00 0.00 0.00 86 1010.8
20260906093253 61 207 0.0 0.0 0.00 0.00 0.00 86 1010.5
20260906092754 61 207 0.0 0.0 0.00 0.00 0.00 85 1010.8
20260906092253 61 207 0.0 0.0 0.00 0.00 0.00 85 1010.5
20260906091754 62 207 0.0 0.9 0.00 0.00 0.00 84 1010.8
20260906091253 62 207 0.0 0.9 0.00 0.00 0.00 84 1010.5
20260906090752 62 207 0.0 0.0 0.00 0.00 0.00 84 1010.5
20260906090253 63 207 0.0 0.0 0.00 0.00 0.00 84 1010.5
20260906085754 63 207 0.0 0.0 0.00 0.00 0.00 84 1010.5
20260906085251 63 207 0.0 0.9 0.00 0.00 0.00 84 1010.5
20260906084852 63 207 0.0 0.9 0.00 0.00 0.00 85 1010.2
20260906084351 62 207 0.0 0.0 0.00 0.00 0.00 86 1010.2
20260906083951 62 207 0.0 0.0 0.00 0.00 0.00 85 1010.5
20260906083452 62 213 0.0 1.7 0.00 0.00 0.00 84 1010.2
20260906082952 63 213 0.0 1.7 0.00 0.00 0.00 83 1010.2
20260906082452 63 213 0.0 0.0 0.00 0.00 0.00 83 1010.5
20260906081949 64 212 0.0 0.0 0.00 0.00 0.00 82 1010.5
20260906081450 64 213 0.0 0.0 0.00 0.00 0.00 82 1010.5
20260906080950 64 213 0.0 0.0 0.00 0.00 0.00 82 1010.5
20260906080450 64 213 0.0 1.7 0.00 0.00 0.00 81 1010.5
20260906075952 65 213 0.0 2.6 0.00 0.00 0.00 81 1010.5
20260906075449 65 212 1.7 4.3 0.00 0.00 0.00 81 1010.5
20260906074949 65 211 1.7 6.1 0.00 0.00 0.00 80 1010.5
20260906074446 66 209 1.7 5.2 0.00 0.00 0.00 80 1010.5
20260906073946 66 205 2.6 6.1 0.00 0.00 0.00 80 1010.5
20260906073449 66 190 3.5 6.1 0.00 0.00 0.00 79 1010.8
20260906072947 66 186 3.5 6.1 0.00 0.00 0.00 79 1010.8
20260906072448 66 217 3.5 5.2 0.00 0.00 0.00 79 1010.8
20260906071946 66 210 2.6 7.0 0.00 0.00 0.00 79 1010.8
20260906071446 66 218 0.9 7.0 0.00 0.00 0.00 78 1010.8
20260906070951 67 198 1.7 6.1 0.00 0.00 0.00 78 1010.8
20260906070451 67 207 1.7 7.0 0.00 0.00 0.00 77 1010.5
20260906065944 68 207 4.3 7.0 0.00 0.00 0.00 77 1010.8
20260906065444 68 198 4.3 6.1 0.00 0.00 0.00 76 1010.8
20260906064844 68 182 5.2 6.1 0.00 0.00 2.38 75 1010.5
20260906064343 69 180 3.5 9.6 0.00 0.00 2.38 74 1010.8
20260906063843 69 173 2.6 10.4 0.00 0.00 2.38 73 1010.8
20260906063343 69 156 7.8 10.4 0.00 0.00 2.38 73 1010.8
20260906062843 69 166 5.2 8.7 0.00 0.00 2.38 73 1010.8
20260906062342 69 161 5.2 7.8 0.00 0.00 2.38 73 1010.8
20260906061840 69 155 5.2 7.8 0.00 0.00 2.38 74 1010.8
20260906061341 68 153 4.3 7.8 0.00 0.00 2.38 75 1010.8
20260906060839 68 165 1.7 7.8 0.00 0.00 2.38 77 1011.2
20260906060340 68 157 2.6 7.8 0.00 0.00 2.38 79 1010.8
20260906055842 67 202 0.0 1.7 0.00 0.00 2.38 83 1011.2
20260906055342 66 202 0.0 1.7 0.00 0.00 2.38 83 1010.8
20260906054840 66 202 0.0 3.5 0.00 0.00 2.38 83 1010.8
20260906054347 67 202 0.9 3.5 0.00 0.00 2.38 83 1010.8
20260906053841 67 169 3.5 3.5 0.00 0.00 2.38 82 1010.8
20260906053341 67 160 0.9 1.7 0.00 0.00 2.38 82 1010.8
20260906052838 68 160 0.0 1.7 0.00 0.00 2.38 82 1010.8
20260906052240 68 160 0.0 1.7 0.00 0.00 2.38 82 1010.8
20260906051739 68 159 0.0 1.7 0.00 0.00 2.38 82 1010.8
20260906051238 68 160 0.0 1.7 0.00 0.00 2.38 82 1010.5
20260906050736 68 160 0.9 1.7 0.00 0.00 2.38 82 1010.5
20260906050237 68 159 0.9 6.1 0.00 0.00 2.38 82 1010.2
20260906045836 68 159 0.9 7.0 0.00 0.00 2.38 82 1010.5
20260906045337 68 163 4.3 7.0 0.00 0.00 2.38 82 1010.5
20260906044837 68 180 4.3 7.0 0.00 0.00 2.38 83 1010.5
20260906044337 68 199 4.3 4.3 0.00 0.00 2.38 83 1010.5
20260906043937 68 194 1.7 2.6 0.00 0.00 2.38 83 1010.5
20260906043437 68 194 0.9 6.1 0.00 0.00 2.38 83 1010.5
20260906042936 68 194 1.7 6.1 0.00 0.00 2.38 83 1010.5
20260906042435 68 163 4.3 5.2 0.00 0.00 2.38 82 1010.8
20260906041935 69 159 1.7 2.6 0.00 0.00 2.38 81 1010.8
20260906041439 69 157 0.9 2.6 0.00 0.00 2.38 81 1010.8
20260906040935 69 157 0.9 5.2 0.00 0.00 2.38 80 1010.5
20260906040433 69 157 0.0 6.1 0.00 0.00 2.38 80 1010.5
20260906035935 69 164 3.5 7.8 0.00 0.00 2.38 80 1010.8
20260906035536 69 175 5.2 7.8 0.00 0.00 2.38 81 1010.8
20260906035033 68 161 5.2 6.1 0.00 0.00 2.38 82 1010.5
20260906034532 68 171 3.5 3.5 0.00 0.00 2.38 82 1010.5
20260906034032 68 105 1.7 2.6 0.00 0.00 2.38 81 1010.5
20260906033531 69 105 0.0 5.2 0.00 0.00 2.38 81 1010.2
20260906033034 68 105 0.9 5.2 0.00 0.00 2.38 81 1010.2
20260906032534 68 113 1.7 6.1 0.00 0.00 2.38 80 1010.2
20260906032032 69 111 2.6 6.1 0.00 0.00 2.38 79 1010.2
20260906031531 69 98 3.5 7.8 0.00 0.00 2.38 79 1010.2
20260906031130 69 98 1.7 11.3 0.00 0.00 2.38 79 1010.2
20260906030632 69 118 7.8 13.9 0.00 0.00 2.38 79 1010.2
20260906030131 70 129 7.8 13.9 0.00 0.00 2.38 78 1009.8
20260906025638 70 132 8.7 13.9 0.00 0.00 2.38 78 1009.5
20260906025230 70 126 7.0 16.5 0.00 0.00 2.38 78 1009.5
20260906024731 70 122 12.2 18.2 0.00 0.00 2.38 78 1009.5
20260906024230 70 127 8.7 21.7 0.00 0.00 2.38 77 1009.8
20260906023730 70 133 12.2 24.3 0.00 0.00 2.38 77 1010.2
20260906023239 70 161 16.5 24.3 0.00 0.00 2.38 79 1010.2
20260906022831 70 143 15.6 22.6 0.00 0.00 2.38 79 1010.2
20260906022339 70 146 14.8 21.7 0.00 0.00 2.38 81 1010.2
20260906021929 69 131 12.2 21.7 0.00 0.00 2.38 83 1010.2
20260906021432 70 157 16.5 24.3 0.00 0.00 2.38 83 1010.2
20260906020927 70 128 13.9 24.3 0.00 0.00 2.38 83 1010.2
20260906020429 70 148 21.7 25.2 0.00 0.00 2.38 82 1009.8
20260906015928 71 130 17.4 24.3 0.00 0.00 2.38 82 1009.8
20260906015428 71 160 13.9 26.1 0.00 0.00 2.38 81 1009.8
20260906014938 72 164 13.9 26.1 0.00 0.00 2.38 74 1009.1
20260906014528 73 146 13.9 21.7 0.00 0.00 2.38 70 1008.8
20260906014038 72 142 13.0 18.2 0.00 0.00 2.38 75 1008.8
20260906013629 72 139 13.0 21.7 0.00 0.00 2.38 81 1008.8
20260906013129 72 141 12.2 21.7 0.00 0.00 2.38 80 1009.1
20260906012627 72 149 16.5 19.1 0.00 0.00 2.38 79 1008.8
20260906012129 72 169 12.2 17.4 0.00 0.00 2.38 76 1009.1
20260906011636 71 157 9.6 13.0 0.00 0.00 2.38 75 1009.5
20260906011227 70 166 5.2 9.6 0.00 0.00 2.38 78 1009.5
20260906010738 69 142 3.5 4.3 0.00 0.00 2.38 81 1009.5
20260906010326 69 98 2.6 5.2 0.00 0.00 2.38 80 1009.8
20260906005842 69 99 1.7 5.2 0.00 0.00 2.38 79 1009.5
20260906005427 69 79 2.6 7.0 0.00 0.00 2.38 77 1009.1
20260906004926 69 131 3.5 11.3 0.00 0.00 2.38 77 1009.1
20260906004425 69 127 7.0 12.2 0.00 0.00 2.38 76 1009.1
20260906004026 69 142 8.7 13.0 0.00 0.00 2.38 78 1008.8
20260906003542 69 125 10.4 13.0 0.00 0.00 2.38 81 1008.8
20260906003127 69 134 6.1 10.4 0.00 0.00 2.38 85 1009.1
20260906002724 69 138 4.3 16.5 0.00 0.00 2.38 88 1009.5
20260906002224 69 124 7.8 16.5 0.00 0.00 2.38 90 1009.8
20260906001825 68 151 4.3 10.4 0.00 0.00 2.38 91 1010.2
20260906001340 68 252 3.5 11.3 0.00 0.00 2.38 91 1010.2
20260906000924 68 250 0.9 11.3 0.00 0.00 2.38 91 1010.2
20260906000425 68 235 3.5 10.4 0.00 0.00 2.38 91 1010.2
20260905235924 68 255 6.1 6.1 0.00 0.00 2.38 91 1010.2
20260905235422 68 170 1.7 7.8 0.00 0.00 2.38 91 1009.8
20260905234923 68 167 4.3 9.6 0.00 0.00 2.37 90 1009.5
20260905234424 68 157 4.3 9.6 0.00 0.00 2.36 90 1009.1
20260905233924 68 172 1.7 7.0 0.00 0.00 2.35 89 1009.5
20260905233424 68 189 2.6 8.7 0.00 0.00 2.35 89 1009.1
20260905232924 69 138 6.1 11.3 0.00 0.00 2.33 88 1008.8
20260905232523 70 157 4.3 11.3 0.00 0.00 2.30 87 1008.8
20260905232040 70 178 11.3 11.3 0.00 0.00 2.21 86 1009.5
20260905231636 70 160 5.2 21.7 0.00 0.00 2.13 86 1008.5
20260905231224 70 123 11.3 24.3 0.00 0.00 2.06 86 1008.5
20260905230741 68 130 20.0 24.3 0.00 0.00 1.95 85 1008.5
20260905230322 67 151 13.9 29.5 0.00 0.00 1.90 87 1008.8
20260905225840 68 126 17.4 29.5 0.00 0.00 1.81 88 1008.5
20260905225424 67 130 18.2 29.5 0.00 0.00 1.69 85 1008.1
20260905224923 67 113 17.4 26.1 0.00 0.00 1.55 83 1008.5
20260905224420 68 98 9.6 20.9 0.00 0.00 1.39 78 1008.8
20260905223922 68 113 11.3 14.8 0.00 0.00 1.30 85 1010.2
20260905223447 70 156 6.1 14.8 0.00 0.00 1.01 80 1009.5
20260905223033 71 134 3.5 18.2 0.00 0.00 0.84 76 1010.2
20260905222553 73 84 3.5 18.2 0.00 0.00 0.53 77 1009.5
20260905222126 74 22 10.4 20.9 0.00 0.00 0.33 72 1009.1
20260905221629 76 345 10.4 27.8 0.00 0.00 0.19 72 1008.5
20260905221131 75 5 13.9 27.8 0.00 0.00 0.12 72 1007.1
20260905220631 76 300 13.9 21.7 0.00 0.00 0.04 65 1006.8
20260905220145 78 322 14.8 18.2 0.00 0.00 0.01 63 1007.5
20260905215731 81 20 7.8 8.7 0.00 0.00 0.01 64 1007.5
20260905215253 82 88 2.6 10.4 0.00 0.00 0.01 61 1007.5
20260905214830 83 90 5.2 10.4 0.00 0.00 0.01 57 1007.1
20260905214347 83 81 8.7 10.4 0.00 0.00 0.01 57 1006.8
20260905213924 84 90 6.1 10.4 0.00 0.00 0.01 55 1006.8
20260905213431 84 95 2.6 10.4 0.00 0.00 0.01 55 1006.8
20260905212929 84 113 6.1 13.0 0.00 0.00 0.01 55 1007.1
20260905212429 85 128 7.0 13.0 0.00 0.00 0.00 51 1006.1
20260905211952 86 160 5.2 13.0 0.00 0.00 0.00 49 1006.4
20260905211529 87 129 7.8 13.0 0.00 0.00 0.00 49 1006.4
20260905211050 87 140 6.1 13.9 0.00 0.00 0.00 45 1006.4
20260905210630 87 140 7.8 13.9 0.00 0.00 0.00 46 1005.8
20260905210129 87 137 6.1 13.0 0.00 0.00 0.00 45 1005.8